OK2ZAW-23 Weather Reports


time (UTC)temp
C
wind
direction
speed
KPH
gust
KPH
rain 1hr
cm
rain 24hr
cm
rain mn
cm
humidity
%
barometer
mb
20260905194859 15 0 0.0 0.0 0.00 0.00 0.00 65 1019.5
20260905194346 15 0 0.0 0.0 0.00 0.00 0.00 64 1019.5
20260905193833 15 0 0.0 0.0 0.00 0.00 0.00 64 1019.4
20260905193318 15 0 0.0 0.0 0.00 0.00 0.00 64 1019.4
20260905192251 15 0 0.0 0.0 0.00 0.00 0.00 64 1019.3
20260905191738 15 0 0.0 0.0 0.00 0.00 0.00 63 1019.3
20260905191223 16 0 0.0 0.0 0.00 0.00 0.00 63 1019.1
20260905190710 16 0 0.0 0.0 0.00 0.00 0.00 62 1019.2
20260905190156 16 0 0.0 0.0 0.00 0.00 0.00 61 1019.2
20260905185129 16 0 0.0 0.0 0.00 0.00 0.00 61 1019.0
20260905184101 16 0 0.0 0.0 0.00 0.00 0.00 60 1018.8
20260905183548 16 0 0.0 0.0 0.00 0.00 0.00 60 1018.7
20260905182520 16 0 0.0 0.0 0.00 0.00 0.00 59 1018.6
20260905182006 16 0 0.0 0.0 0.00 0.00 0.00 59 1018.5
20260905181453 16 0 0.0 0.0 0.00 0.00 0.00 59 1018.4
20260905180938 16 0 0.0 0.0 0.00 0.00 0.00 59 1018.5
20260905180424 16 0 0.0 0.0 0.00 0.00 0.00 58 1018.4
20260905175911 17 0 0.0 0.0 0.00 0.00 0.00 58 1018.3
20260905175357 17 0 0.0 0.0 0.00 0.00 0.00 57 1018.2
20260905174843 17 0 0.0 0.0 0.00 0.00 0.00 57 1018.1
20260905173302 17 0 0.0 0.0 0.00 0.00 0.00 56 1017.9
20260905172747 17 0 0.0 0.0 0.00 0.00 0.00 55 1017.9
20260905171206 18 0 0.0 0.0 0.00 0.00 0.00 59 1017.6
20260905170138 18 0 0.0 0.0 0.00 0.00 0.00 58 1017.5
20260905164556 19 0 0.0 0.0 0.00 0.00 0.00 55 1017.4
20260905164041 20 0 0.0 0.0 0.00 0.00 0.00 54 1017.3
20260905163527 20 0 0.0 0.0 0.00 0.00 0.00 55 1017.2
20260905161946 19 0 0.0 0.0 0.00 0.00 0.00 56 1017.2
20260905160917 20 0 0.0 0.0 0.00 0.00 0.00 54 1017.1
20260905160403 20 0 0.0 0.0 0.00 0.00 0.00 53 1017.0
20260905155849 20 0 0.0 0.0 0.00 0.00 0.00 52 1017.0
20260905154306 21 0 0.0 0.0 0.00 0.00 0.00 46 1017.0
20260905153752 22 0 0.0 0.0 0.00 0.00 0.00 44 1017.0
20260905153238 22 0 0.0 0.0 0.00 0.00 0.00 43 1017.1
20260905152723 22 0 0.0 0.0 0.00 0.00 0.00 44 1016.9
20260905152209 22 0 0.0 0.0 0.00 0.00 0.00 43 1016.9
20260905151141 21 0 0.0 0.0 0.00 0.00 0.00 47 1016.9
20260905150626 20 0 0.0 0.0 0.00 0.00 0.00 48 1016.9
20260905150113 20 0 0.0 0.0 0.00 0.00 0.00 46 1016.9
20260905145558 21 0 0.0 0.0 0.00 0.00 0.00 45 1016.8
20260905144530 22 0 0.0 0.0 0.00 0.00 0.00 41 1017.0
20260905144015 22 0 0.0 0.0 0.00 0.00 0.00 41 1016.9
20260905142946 21 0 0.0 0.0 0.00 0.00 0.00 45 1017.0
20260905142433 21 0 0.0 0.0 0.00 0.00 0.00 44 1017.0
20260905140849 22 0 0.0 0.0 0.00 0.00 0.00 41 1017.3
20260905140335 21 0 0.0 0.0 0.00 0.00 0.00 43 1017.0
20260905135821 21 0 0.0 0.0 0.00 0.00 0.00 44 1017.3
20260905135307 21 0 0.0 0.0 0.00 0.00 0.00 45 1017.1
20260905133724 21 0 0.0 0.0 0.00 0.00 0.00 44 1017.4
20260905133209 21 0 0.0 0.0 0.00 0.00 0.00 45 1017.3
20260905132655 20 0 0.0 0.0 0.00 0.00 0.00 45 1017.4
20260905132141 20 0 0.0 0.0 0.00 0.00 0.00 45 1017.2
20260905131627 20 0 0.0 0.0 0.00 0.00 0.00 47 1017.4
20260905130558 20 0 0.0 0.0 0.00 0.00 0.00 47 1017.4
20260905130044 20 0 0.0 0.0 0.00 0.00 0.00 48 1017.4
20260905125530 20 0 0.0 0.0 0.00 0.00 0.00 47 1017.4
20260905124502 20 0 0.0 0.0 0.00 0.00 0.00 47 1017.5
20260905123948 20 0 0.0 0.0 0.00 0.00 0.00 46 1017.4
20260905123434 20 0 0.0 0.0 0.00 0.00 0.00 45 1017.6
20260905122919 20 0 0.0 0.0 0.00 0.00 0.00 45 1017.5
20260905121851 20 0 0.0 0.0 0.00 0.00 0.00 50 1017.4
20260905120309 18 0 0.0 0.0 0.00 0.00 0.00 50 1017.4
20260905115755 19 0 0.0 0.0 0.00 0.00 0.00 49 1017.4
20260905115242 19 0 0.0 0.0 0.00 0.00 0.00 50 1017.5
20260905114727 18 0 0.0 0.0 0.00 0.00 0.00 55 1017.4
20260905114213 18 0 0.0 0.0 0.00 0.00 0.00 55 1017.4
20260905113659 18 0 0.0 0.0 0.00 0.00 0.00 53 1017.6
20260905112632 18 0 0.0 0.0 0.00 0.00 0.00 53 1017.9
20260905111603 18 0 0.0 0.0 0.00 0.00 0.00 55 1017.5
20260905111049 18 0 0.0 0.0 0.00 0.00 0.00 54 1017.7
20260905110535 18 0 0.0 0.0 0.00 0.00 0.00 57 1017.6
20260905110021 18 0 0.0 0.0 0.00 0.00 0.00 58 1017.5
20260905105507 18 0 0.0 0.0 0.00 0.00 0.00 59 1017.6
20260905104954 17 0 0.0 0.0 0.00 0.00 0.00 63 1017.4
20260905103927 17 0 0.0 0.0 0.00 0.00 0.00 63 1017.5
20260905101830 17 0 0.0 0.0 0.00 0.00 0.00 70 1017.6
20260905100249 17 0 0.0 0.0 0.00 0.00 0.00 75 1017.4
20260905095735 17 0 0.0 0.0 0.00 0.00 0.00 74 1017.4
20260905095221 17 0 0.0 0.0 0.00 0.00 0.00 76 1017.5
20260905093640 16 0 0.0 0.0 0.00 0.00 0.00 77 1017.5
20260905093126 16 0 0.0 0.0 0.00 0.00 0.00 82 1017.6
20260905092612 16 0 0.0 0.0 0.00 0.00 0.00 83 1017.6
20260905092058 16 0 0.0 0.0 0.00 0.00 0.00 86 1017.5
20260905091545 16 0 0.0 0.0 0.00 0.00 0.00 86 1017.5
20260905090518 16 0 0.0 0.0 0.00 0.00 0.00 88 1017.4
20260905090004 15 0 0.0 0.0 0.00 0.00 0.00 87 1017.6
20260905085450 15 0 0.0 0.0 0.00 0.00 0.00 90 1017.4
20260905084936 15 0 0.0 0.0 0.00 0.00 0.00 96 1017.6
20260905083909 15 0 0.0 0.0 0.00 0.00 0.00 10 1017.4
20260905083355 15 0 0.0 0.0 0.00 0.00 0.00 10 1017.4
20260905082842 15 0 0.0 0.0 0.00 0.00 0.00 10 1017.2
20260905081815 14 0 0.0 0.0 0.00 0.00 0.00 10 1017.1
20260905081301 14 0 0.0 0.0 0.00 0.00 0.00 10 1017.2
20260905075207 13 0 0.0 0.0 0.00 0.00 0.00 10 1017.0
20260905074653 13 0 0.0 0.0 0.00 0.00 0.00 10 1017.0
20260905074140 13 0 0.0 0.0 0.00 0.00 0.00 10 1016.8
20260905073114 12 0 0.0 0.0 0.00 0.00 0.00 10 1016.6
20260905072600 12 0 0.0 0.0 0.00 0.00 0.00 10 1016.4
20260905071533 13 0 0.0 0.0 0.00 0.00 0.00 10 1016.3
20260905071019 12 0 0.0 0.0 0.00 0.00 0.00 10 1016.3
20260905065440 12 0 0.0 0.0 0.00 0.00 0.00 10 1016.6
20260905064927 12 0 0.0 0.0 0.00 0.00 0.00 10 1016.5
20260905063859 12 0 0.0 0.0 0.00 0.00 0.00 10 1016.5
20260905062833 12 0 0.0 0.0 0.00 0.00 0.00 10 1016.5
20260905062319 11 0 0.0 0.0 0.00 0.00 0.00 10 1016.7
20260905061806 11 0 0.0 0.0 0.00 0.00 0.00 10 1016.7
20260905061253 11 0 0.0 0.0 0.00 0.00 0.00 10 1016.5
20260905060739 11 0 0.0 0.0 0.00 0.00 0.00 10 1016.5
20260905060225 11 0 0.0 0.0 0.00 0.00 0.00 10 1015.8
20260905055712 11 0 0.0 0.0 0.00 0.00 0.00 10 1016.0
20260905055159 11 0 0.0 0.0 0.00 0.00 0.00 10 1016.1
20260905054133 11 0 0.0 0.0 0.00 0.00 0.00 10 1015.6
20260905053619 11 0 0.0 0.0 0.00 0.00 0.00 10 1015.4
20260905053105 11 0 0.0 0.0 0.00 0.00 0.00 10 1015.8
20260905052553 11 0 0.0 0.0 0.00 0.00 0.00 10 1016.0
20260905052039 11 0 0.0 0.0 0.00 0.00 0.00 10 1015.9
20260905051013 11 0 0.0 0.0 0.00 0.00 0.00 10 1015.9
20260905050459 11 0 0.0 0.0 0.00 0.00 0.00 10 1016.0
20260905045945 12 0 0.0 0.0 0.00 0.00 0.00 10 1015.7
20260905045433 12 0 0.0 0.0 0.00 0.00 0.00 10 1015.9
20260905044405 12 0 0.0 0.0 0.00 0.00 0.00 10 1016.0
20260905043853 13 0 0.0 0.0 0.00 0.00 0.00 10 1015.9
20260905043338 13 0 0.0 0.0 0.00 0.00 0.00 10 1015.5
20260905041244 13 0 0.0 0.0 0.00 0.00 0.00 10 1015.2
20260905035704 13 0 0.0 0.0 0.00 0.00 0.00 10 1014.8
20260905035151 13 0 0.0 0.0 0.00 0.00 0.00 10 1014.5
20260905033610 13 0 0.0 0.0 0.00 0.00 0.00 10 1014.6
20260905033057 13 0 0.0 0.0 0.00 0.00 0.00 10 1014.6
20260905032543 13 0 0.0 0.0 0.00 0.00 0.00 10 1014.5
20260905032030 13 0 0.0 0.0 0.00 0.00 0.00 10 1014.3
20260905031516 13 0 0.0 0.0 0.00 0.00 0.00 10 1014.3
20260905031003 13 0 0.0 0.0 0.00 0.00 0.00 10 1014.1
20260905030449 13 0 0.0 0.0 0.00 0.00 0.00 10 1014.2
20260905025422 14 0 0.0 0.0 0.00 0.00 0.00 10 1014.5
20260905024908 14 0 0.0 0.0 0.00 0.00 0.00 10 1014.5
20260905024355 15 0 0.0 0.0 0.00 0.00 0.00 10 1014.7
20260905023328 15 0 0.0 0.0 0.00 0.00 0.00 10 1014.1
20260905022814 15 0 0.0 0.0 0.00 0.00 0.00 10 1013.9
20260905020719 15 0 0.0 0.0 0.00 0.00 0.00 97 1013.3
20260905015653 16 0 0.0 0.0 0.00 0.00 0.00 89 1013.7
20260905015138 16 0 0.0 0.0 0.00 0.00 0.00 91 1013.4
20260905014625 16 0 0.0 0.0 0.00 0.00 0.00 89 1013.0
20260905014111 16 0 0.0 0.0 0.00 0.00 0.00 87 1013.1
20260905013043 16 0 0.0 0.0 0.00 0.00 0.00 85 1013.2
20260905012016 16 0 0.0 0.0 0.00 0.00 0.00 85 1013.2
20260905011503 16 0 0.0 0.0 0.00 0.00 0.00 84 1013.2
20260905010435 16 0 0.0 0.0 0.00 0.00 0.00 83 1013.0
20260905005921 16 0 0.0 0.0 0.00 0.00 0.00 80 1013.1
20260905005407 16 0 0.0 0.0 0.00 0.00 0.00 80 1013.3
20260905004853 17 0 0.0 0.0 0.00 0.00 0.00 79 1013.0
20260905004339 17 0 0.0 0.0 0.00 0.00 0.00 78 1013.1
20260905003826 17 0 0.0 0.0 0.00 0.00 0.00 78 1012.9
20260905002759 17 0 0.0 0.0 0.00 0.00 0.00 80 1012.6
20260905002244 17 0 0.0 0.0 0.00 0.00 0.00 80 1012.5
20260905001216 17 0 0.0 0.0 0.00 0.00 0.00 79 1012.1
20260905000702 17 0 0.0 0.0 0.00 0.00 0.00 77 1012.1
20260904235635 18 0 0.0 0.0 0.00 0.00 0.00 74 1011.7
20260904234053 20 0 0.0 0.0 0.00 0.00 0.00 68 1010.7
20260904233538 20 0 0.0 0.0 0.00 0.00 0.00 67 1010.4
20260904233024 20 0 0.0 0.0 0.00 0.00 0.00 66 1010.3
20260904231956 20 0 0.0 0.0 0.00 0.00 0.00 65 1010.2
20260904231442 20 0 0.0 0.0 0.00 0.00 0.00 65 1010.2
20260904230928 20 0 0.0 0.0 0.00 0.00 0.00 64 1010.2
20260904230413 20 0 0.0 0.0 0.00 0.00 0.00 64 1010.3
20260904225345 20 0 0.0 0.0 0.00 0.00 0.00 64 1010.2
20260904224831 20 0 0.0 0.0 0.00 0.00 0.00 63 1010.2
20260904223249 20 0 0.0 0.0 0.00 0.00 0.00 63 1010.1
20260904222734 20 0 0.0 0.0 0.00 0.00 0.00 63 1010.1
20260904222221 20 0 0.0 0.0 0.00 0.00 0.00 63 1010.2
20260904220638 20 0 0.0 0.0 0.00 0.00 0.00 62 1010.2
20260904215610 20 0 0.0 0.0 0.00 0.00 0.00 61 1010.1
20260904214541 20 0 0.0 0.0 0.00 0.00 0.00 60 1010.1
20260904214027 20 0 0.0 0.0 0.00 0.00 0.00 60 1010.0
20260904213513 20 0 0.0 0.0 0.00 0.00 0.00 60 1010.1
20260904212445 20 0 0.0 0.0 0.00 0.00 0.00 59 1010.1
20260904211416 20 0 0.0 0.0 0.00 0.00 0.00 59 1010.0
20260904210902 21 0 0.0 0.0 0.00 0.00 0.00 59 1010.1
20260904205834 21 0 0.0 0.0 0.00 0.00 0.00 58 1010.0
20260904205319 21 0 0.0 0.0 0.00 0.00 0.00 59 1010.1
20260904204805 21 0 0.0 0.0 0.00 0.00 0.00 58 1010.1
20260904203737 21 0 0.0 0.0 0.00 0.00 0.00 58 1010.1
20260904202708 21 0 0.0 0.0 0.00 0.00 0.00 57 1010.1
20260904201640 21 0 0.0 0.0 0.00 0.00 0.00 58 1010.2
20260904200057 21 0 0.0 0.0 0.00 0.00 0.00 58 1010.3